Flag for Poland Weather past 2 weeks in Płock, Poland

Now
32 °F

Chilly.


Feels Like: 27 °F
Forecast: 30 / 37 °F
Wind: 5 mph from South

Location: Plock

Current Time: Jan 28, 2015 at 11:59:11 PM

Latest Report: Jan 28, 2015 at 11:00 PM


Visibility: 7 mi

Pressure: 29.50 "Hg

Humidity: 82%

Dew point: 27 °F

Location of PłockLocation

Historic Weather in Płock — Graph

°F

Płock temperature yesterday

Maximum temperature yesterday: 35 °F (at 8:00 PM)
Minimum temperature yesterday: 22 °F (at 5:00 AM)
Average temperature yesterday: 30 °F

Past Weeks' High & Low Weather Summary

 TemperatureHumidityPressure
High50 °F (Jan 16, 1:00 PM)100% (Jan 19, 2:00 AM)30.27 "Hg (Jan 19, 2:00 AM)
Low22 °F (Jan 27, 5:00 AM)58% (Jan 13, 11:00 PM)29.57 "Hg (Jan 28, 10:00 PM)
Average34 °F90%30.00 "Hg
* Reported Jan 13 10:00 PM — Jan 28 10:00 PM, Płock, Weather by CustomWeather, © 2014

Note: Actual official high and low records may vary slightly from our data, if they occured in-between our weather recording intervals... More about our weather records

Advertising

Płock weather history for previous 24 hours

 ConditionsComfort  
Time TempWeatherWind HumidityBarometerVisibility
10:00 PM
Jan 28
34 °FChilly.7 mph78%29.57 "Hg8 mi
9:00 PM34 °FChilly.5 mph79%29.61 "Hg7 mi
8:00 PM34 °FChilly.5 mph82%29.65 "Hg7 mi
7:00 PM33 °FFog.5 mph86%29.68 "Hg5 mi
6:00 PM33 °FFog.3 mph88%29.73 "Hg5 mi
5:00 PM33 °FFog.2 mph86%29.77 "Hg5 mi
4:00 PM33 °FChilly.3 mph84%29.79 "Hg8 mi
3:00 PM33 °FChilly.5 mph83%29.81 "Hg12 mi
2:00 PM34 °FChilly.5 mph83%29.83 "Hg12 mi
1:00 PM34 °FChilly.5 mph83%29.85 "Hg9 mi
12:00 PM34 °FFog.3 mph89%29.87 "Hg6 mi
11:00 AM34 °FFog.3 mph88%29.88 "Hg6 mi
10:00 AM33 °FChilly.5 mph88%29.90 "Hg10 mi
9:00 AM33 °FChilly.5 mph90%29.90 "Hg9 mi
8:00 AM34 °FFog.5 mph93%29.90 "Hg4 mi
7:00 AM34 °FRain showers. Overcast.6 mph94%29.88 "Hg3 mi
6:00 AM33 °FRain showers. Overcast.6 mph96%29.88 "Hg2 mi
5:00 AM34 °FLight rain. Overcast.7 mph96%29.88 "Hg2 mi
4:00 AM34 °FLots of rain. Overcast.7 mph95%29.88 "Hg1 mi
3:00 AM35 °FRain showers. Overcast.7 mph94%29.88 "Hg3 mi
2:00 AM35 °FDrizzle. Overcast.7 mph94%29.88 "Hg2 mi
1:00 AM35 °FChilly.7 mph95%29.87 "Hg2 mi
12:00 AM35 °FChilly.5 mph97%29.88 "Hg2 mi
11:00 PM
Jan 27
34 °FRain showers. Overcast.6 mph97%29.87 "Hg2 mi
Weather by CustomWeather, © 2014

See weather overviewHow to use our weather pages